This demonstration page uses our WeatherBlox Daily Observations layout. Learn more.

Left ArrowRight Arrow

41.76142, -88.44369

Hourly Observations for May 15, 2022

Temp ( °F °C ) Dew Point ( °F °C ) Humidity (%) Winds ( mph kmh ) Pressure ( in mb ) Visibility ( mi km ) Precip ( " mm )
12:52 am 00:52 Clear 65 18.3 55 12.8 70 70 S 7 11 29.87 1012 10 16 0.00 0.00
1:52 am 01:52 Clear 64 17.8 56 13.3 75 75 S 8 13 29.85 1011 10 16 0.00 0.00
2:52 am 02:52 Mostly Cloudy 66 18.9 56 13.3 70 70 SSW 3 6 29.86 1011 9 14 0.00 0.00
3:52 am 03:52 Mostly Clear 62 16.7 56 13.3 80 80 Calm 29.87 1012 9 14 0.00 0.00
4:52 am 04:52 Clear 64 17.8 56 13.3 75 75 WSW 6 9 29.89 1012 9 14 0.00 0.00
5:52 am 05:52 Sunny 64 17.8 51 10.6 63 63 WNW 5 7 29.90 1012 10 16 0.00 0.00
6:52 am 06:52 Sunny 64 17.8 53 11.7 68 68 NW 3 6 29.91 1013 10 16 0.00 0.00
7:52 am 07:52 Partly Cloudy 66 18.9 54 12.2 65 65 W 6 9 29.93 1014 10 16 0.00 0.00
8:52 am 08:52 Sunny 68 20 52 11.1 57 57 N 10 17 29.91 1013 10 16 0.00 0.00
9:52 am 09:52 Sunny 72 22.2 49 9.4 44 44 N 10 17 29.91 1013 10 16 0.00 0.00
10:52 am 10:52 Sunny 72 22.2 47 8.3 41 41 N 7 11 29.92 1013 10 16 0.00 0.00
11:52 am 11:52 Mostly Cloudy 71 21.7 46 7.8 41 41 N 7 11 29.92 1013 10 16 0.00 0.00
12:52 pm 12:52 Cloudy 70 21.1 50 10 49 49 N 13 20 29.91 1013 10 16 0.01 0.25
1:52 pm 13:52 Cloudy with Light Rain 70 21.1 51 10.6 51 51 WNW 8 13 29.92 1013 9 14 0.00 0.00
2:52 pm 14:52 Mostly Cloudy 69 20.6 48 8.9 47 47 WNW 12 19 29.92 1013 10 16 0.00 0.00
3:52 pm 15:52 Cloudy 64 17.8 48 8.9 56 56 NW 15 24 29.90 1013 8 13 0.00 0.00
4:52 pm 16:52 Cloudy with Light Rain 64 17.8 49 9.4 58 58 WNW 9 15 29.89 1012 10 16 0.00 0.00
5:52 pm 17:52 Cloudy 64 17.8 50 10 60 60 WNW 12 19 29.86 1011 10 16 0.00 0.00
6:52 pm 18:52 Cloudy 63 17.2 49 9.4 60 60 W 10 17 29.87 1012 10 16 0.00 0.00
7:52 pm 19:52 Cloudy with Light Rain 62 16.7 48 8.9 60 60 WSW 8 13 29.87 1012 10 16 0.00 0.00
8:52 pm 20:52 Mostly Cloudy 58 14.4 49 9.4 72 72 SW 3 6 29.87 1012 10 16 0.00 0.00
9:52 pm 21:52 Cloudy 57 13.9 51 10.6 81 81 W 6 9 29.88 1012 10 16 0.00 0.00
10:52 pm 22:52 Clear 54 12.2 48 8.9 80 80 WSW 5 7 29.88 1012 10 16 0.00 0.00
11:52 pm 23:52 Clear 52 11.1 48 8.9 86 86 WSW 7 11 29.88 1012 10 16 0.00 0.00

Powered by AerisWeather